Location: Kimberly
(42.5380°N, 114.3640°W)
Time: 01:46:08
(UTC-06:00)

Envisat - Visible Passes

Search period start: 27 May 2018 00:00
Search period end: 06 June 2018 00:00
Orbit: 764 x 766 km, 98.2° (Epoch: 26 May)

Date Brightness Start Highest point End Pass type
(mag) Time Alt. Az. Time Alt. Az. Time Alt. Az.
27 May 6.0 22:35:34 10° W 22:36:29 10° W 22:37:25 10° WNW visible
28 May 5.2 21:55:16 10° SSW 21:59:20 24° W 22:03:26 10° NW visible
30 May 5.7 22:22:41 10° WSW 22:25:11 14° W 22:27:42 10° WNW visible
31 May 4.9 21:43:41 10° SSW 21:48:06 30° W 21:52:33 10° NW visible
02 Jun 5.5 22:10:35 10° SW 22:13:54 17° W 22:17:14 10° NW visible
05 Jun 5.3 21:58:45 10° SW 22:02:38 22° W 22:06:32 10° NW visible
